sat.trackr.live / text

‹ back to catalog

STARLINK-11704 [DTC]

NORAD 64245 · 2025-119N

PAYLOAD ACTIVE UNKNOWN

§ Identity

Operator
Country
US
Launch date
2025-06-03
Launch site
AFETR
Launch vehicle
Mass (kg)
RCS (m²)

Purposes: comms

External: N2YO · Heavens-Above · Gunter

§ Orbital elements

Epoch: 2026-09-20T22:19:07.737024Z

Period
91.67 min
Inclination
43.0001°
Eccentricity
0.0001592
Mean motion
15.70844612 rev/d
Perigee alt
355.4 km
Apogee alt
357.6 km
Semi-major
6,734.6 km
B*
8.9800e-4
RAAN
112.0276°
Arg perigee
277.4223°
Mean anomaly
82.6463°
Rev number
7,595

§ Raw data

STARLINK-11704 [DTC]1 64245U 25119N   26263.92995066  .00116427  00000+0  89800-3 0  99922 64245  43.0001 112.0276 0001592 277.4223  82.6463 15.70844612 75957

JSON: /api/v1/satellites/64245 · /tle

For live sub-satellite position, see the globe view (requires WebGL).

§ Visibility from observer

Set your observer location to see the next 7 days of passes ≥ 10°. The values pass through the URL so the page stays shareable.

No JS? Fill the form by hand. The geolocation button needs JavaScript.